Back to Top

Language: 

My Weather Underground Personal Weather Station Historical Data with Graphs...

Delerius Weather Station Historical Data
Daily Summary for June 17, 2017 Units:  Metric    English   Both
« Previous Day
Next Day »
Daily Weekly Monthly Yearly Custom
  High: Low: Average:
Temperature: 29.1 °C 16.7 °C 22.8 °C
Dew Point: 18.3 °C 13.2 °C 16.3 °C
Humidity: 89 % 46 % 68 %
Wind Speed: 16.1 km/h 0 km/h 9.7 km/h
Wind Gust: 30.6 km/h - -
Wind:- - WNW
Pressure: 1025.3 hPa 1023.6 hPa -
Precipitation: 0 mm    
Historical Graphs
 
 
Tabular Data for June 17, 2017
Time Temperature Dew Point Pressure Wind Wind Speed Wind Gust Humidity Rainfall Rate (Hourly) solar Conditions
00:03 17.3 °C 14.9 °C 1024.6 hPa WNW 8 km/h 12.9 km/h 86 % 0 mm 0 W/m2
00:08 17.3 °C 14.9 °C 1024.6 hPa WNW 8 km/h 12.9 km/h 86 % 0 mm 0 W/m2
00:13 17.2 °C 14.8 °C 1024.6 hPa WNW 8 km/h 12.9 km/h 86 % 0 mm 0 W/m2
00:18 17.2 °C 14.8 °C 1024.6 hPa WNW 8 km/h 12.9 km/h 86 % 0 mm 0 W/m2
00:23 17.1 °C 14.9 °C 1024.6 hPa WNW 8 km/h 12.9 km/h 87 % 0 mm 0 W/m2
00:28 17.1 °C 14.9 °C 1024.6 hPa WNW 8 km/h 12.9 km/h 87 % 0 mm 0 W/m2
00:33 17.1 °C 14.9 °C 1024.6 hPa NW 8 km/h 12.9 km/h 87 % 0 mm 0 W/m2
00:38 17.1 °C 14.9 °C 1024.6 hPa WNW 6.4 km/h 11.3 km/h 87 % 0 mm 0 W/m2
00:43 17.1 °C 14.9 °C 1024.6 hPa WNW 6.4 km/h 11.3 km/h 87 % 0 mm 0 W/m2
00:48 17.2 °C 15 °C 1024.6 hPa WNW 6.4 km/h 11.3 km/h 87 % 0 mm 0 W/m2
00:53 17.2 °C 15.2 °C 1024.6 hPa WNW 6.4 km/h 12.9 km/h 88 % 0 mm 0 W/m2
00:58 17.3 °C 15.3 °C 1024.6 hPa WNW 8 km/h 16.1 km/h 88 % 0 mm 0 W/m2
01:03 17.3 °C 15.1 °C 1024.6 hPa WNW 9.7 km/h 16.1 km/h 87 % 0 mm 0 W/m2
01:08 17.4 °C 15.2 °C 1024.6 hPa WNW 8 km/h 14.5 km/h 87 % 0 mm 0 W/m2
01:13 17.4 °C 15.2 °C 1024.6 hPa WNW 9.7 km/h 14.5 km/h 87 % 0 mm 0 W/m2
01:18 17.4 °C 15.2 °C 1024.6 hPa WNW 11.3 km/h 17.7 km/h 87 % 0 mm 0 W/m2
01:23 17.5 °C 15.3 °C 1024.6 hPa WNW 11.3 km/h 17.7 km/h 87 % 0 mm 0 W/m2
01:28 17.6 °C 15.4 °C 1024.6 hPa WNW 11.3 km/h 16.1 km/h 87 % 0 mm 0 W/m2
01:33 17.6 °C 15.4 °C 1024.6 hPa WNW 9.7 km/h 16.1 km/h 87 % 0 mm 0 W/m2
01:38 17.6 °C 15.4 °C 1024.6 hPa WNW 9.7 km/h 16.1 km/h 87 % 0 mm 0 W/m2
01:43 17.7 °C 15.3 °C 1024.6 hPa WNW 9.7 km/h 14.5 km/h 86 % 0 mm 0 W/m2
01:49 17.7 °C 15.3 °C 1024.6 hPa WNW 9.7 km/h 14.5 km/h 86 % 0 mm 0 W/m2
01:59 17.8 °C 15.4 °C 1024.6 hPa WNW 9.7 km/h 17.7 km/h 86 % 0 mm 0 W/m2
02:04 17.8 °C 15.4 °C 1024.6 hPa WNW 11.3 km/h 17.7 km/h 86 % 0 mm 0 W/m2
02:09 17.8 °C 15.4 °C 1024.6 hPa WNW 11.3 km/h 19.3 km/h 86 % 0 mm 0 W/m2
02:14 17.8 °C 15.4 °C 1024.6 hPa West 11.3 km/h 19.3 km/h 86 % 0 mm 0 W/m2
02:19 17.8 °C 15.2 °C 1024.6 hPa West 11.3 km/h 17.7 km/h 85 % 0 mm 0 W/m2
02:24 17.8 °C 15.2 °C 1024.6 hPa West 12.9 km/h 20.9 km/h 85 % 0 mm 0 W/m2
02:29 17.8 °C 15.2 °C 1024.3 hPa West 12.9 km/h 20.9 km/h 85 % 0 mm 0 W/m2
02:34 17.8 °C 15.2 °C 1024.6 hPa West 12.9 km/h 19.3 km/h 85 % 0 mm 0 W/m2
02:39 17.8 °C 15.2 °C 1024.6 hPa West 11.3 km/h 19.3 km/h 85 % 0 mm 0 W/m2
02:44 17.8 °C 15.2 °C 1024.6 hPa West 9.7 km/h 17.7 km/h 85 % 0 mm 0 W/m2
02:45 17.8 °C 15.2 °C 1024.6 hPa West 9.7 km/h 17.7 km/h 85 % 0 mm 0 W/m2
02:50 17.8 °C 15.2 °C 1024.6 hPa West 9.7 km/h 17.7 km/h 85 % 0 mm 0 W/m2
02:55 17.8 °C 15.2 °C 1024.6 hPa West 9.7 km/h 17.7 km/h 85 % 0 mm 0 W/m2
03:00 17.8 °C 15.2 °C 1024.6 hPa West 9.7 km/h 16.1 km/h 85 % 0 mm 0 W/m2
03:05 17.8 °C 15.4 °C 1024.6 hPa West 9.7 km/h 14.5 km/h 86 % 0 mm 0 W/m2
03:10 17.8 °C 15.4 °C 1024.6 hPa WNW 8 km/h 14.5 km/h 86 % 0 mm 0 W/m2
03:15 17.8 °C 15.4 °C 1024.6 hPa West 6.4 km/h 14.5 km/h 86 % 0 mm 0 W/m2
03:20 17.8 °C 15.4 °C 1024.6 hPa West 6.4 km/h 14.5 km/h 86 % 0 mm 0 W/m2
03:25 17.8 °C 15.4 °C 1024.6 hPa West 6.4 km/h 11.3 km/h 86 % 0 mm 0 W/m2
03:30 17.7 °C 15.2 °C 1024.6 hPa WNW 6.4 km/h 11.3 km/h 85 % 0 mm 0 W/m2
03:35 17.7 °C 15.2 °C 1024.6 hPa WNW 6.4 km/h 11.3 km/h 85 % 0 mm 0 W/m2
03:40 17.6 °C 15.2 °C 1024.6 hPa West 8 km/h 11.3 km/h 86 % 0 mm 0 W/m2
03:45 17.5 °C 15.1 °C 1024.6 hPa West 8 km/h 11.3 km/h 86 % 0 mm 0 W/m2
03:50 17.4 °C 15.1 °C 1024.6 hPa WNW 8 km/h 12.9 km/h 86 % 0 mm 0 W/m2
03:55 17.2 °C 14.8 °C 1024.6 hPa WNW 8 km/h 14.5 km/h 86 % 0 mm 0 W/m2
04:00 17.2 °C 15 °C 1024.6 hPa WNW 8 km/h 14.5 km/h 87 % 0 mm 0 W/m2
04:05 17.1 °C 14.9 °C 1024.6 hPa WNW 6.4 km/h 14.5 km/h 87 % 0 mm 0 W/m2
04:10 17 °C 14.8 °C 1024.6 hPa WNW 4.8 km/h 9.7 km/h 87 % 0 mm 0 W/m2
04:15 16.9 °C 14.9 °C 1024.6 hPa WNW 4.8 km/h 9.7 km/h 88 % 0 mm 0 W/m2
04:20 16.8 °C 14.8 °C 1024.6 hPa WNW 3.2 km/h 8 km/h 88 % 0 mm 0 W/m2
04:25 16.8 °C 14.8 °C 1024.6 hPa WNW 1.6 km/h 6.4 km/h 88 % 0 mm 0 W/m2
04:30 16.8 °C 14.8 °C 1024.6 hPa WNW 1.6 km/h 4.8 km/h 88 % 0 mm 0 W/m2
04:35 16.8 °C 15 °C 1024.6 hPa WNW 1.6 km/h 3.2 km/h 89 % 0 mm 0 W/m2
04:40 16.7 °C 14.9 °C 1024.6 hPa WNW 1.6 km/h 3.2 km/h 89 % 0 mm 5 W/m2
04:45 16.7 °C 14.9 °C 1024.6 hPa WNW 1.6 km/h 4.8 km/h 89 % 0 mm 7 W/m2
04:50 16.8 °C 15 °C 1024.6 hPa WNW 3.2 km/h 9.7 km/h 89 % 0 mm 11 W/m2
04:55 16.8 °C 15 °C 1024.6 hPa WNW 6.4 km/h 11.3 km/h 89 % 0 mm 14 W/m2
05:00 16.9 °C 15.1 °C 1024.6 hPa WNW 9.7 km/h 14.5 km/h 89 % 0 mm 25 W/m2
05:05 17 °C 15.2 °C 1024.6 hPa WNW 11.3 km/h 16.1 km/h 89 % 0 mm 21 W/m2
05:10 17.1 °C 15.3 °C 1024.6 hPa WNW 9.7 km/h 16.1 km/h 89 % 0 mm 19 W/m2
05:15 17.2 °C 15.2 °C 1024.6 hPa West 9.7 km/h 17.7 km/h 88 % 0 mm 28 W/m2
05:20 17.3 °C 15.3 °C 1024.6 hPa West 11.3 km/h 19.3 km/h 88 % 0 mm 21 W/m2
05:25 17.4 °C 15.4 °C 1024.6 hPa West 12.9 km/h 19.3 km/h 88 % 0 mm 23 W/m2
05:30 17.6 °C 15.4 °C 1024.6 hPa West 12.9 km/h 20.9 km/h 87 % 0 mm 23 W/m2
05:35 17.6 °C 15.4 °C 1024.6 hPa West 11.3 km/h 20.9 km/h 87 % 0 mm 30 W/m2
05:40 17.7 °C 15.5 °C 1024.6 hPa West 8 km/h 17.7 km/h 87 % 0 mm 46 W/m2
05:45 17.7 °C 15.5 °C 1024.6 hPa West 8 km/h 12.9 km/h 87 % 0 mm 44 W/m2
05:50 17.8 °C 15.4 °C 1024.6 hPa WSW 9.7 km/h 16.1 km/h 86 % 0 mm 56 W/m2
05:55 17.8 °C 15.4 °C 1024.6 hPa West 11.3 km/h 17.7 km/h 86 % 0 mm 70 W/m2
06:00 17.9 °C 15.5 °C 1024.6 hPa West 11.3 km/h 17.7 km/h 86 % 0 mm 90 W/m2
06:01 17.9 °C 15.5 °C 1024.6 hPa West 11.3 km/h 17.7 km/h 86 % 0 mm 90 W/m2
06:06 17.9 °C 15.5 °C 1024.6 hPa West 9.7 km/h 14.5 km/h 86 % 0 mm 98 W/m2
06:11 18 °C 15.6 °C 1024.6 hPa West 8 km/h 14.5 km/h 86 % 0 mm 72 W/m2
06:16 18.1 °C 15.6 °C 1024.6 hPa West 6.4 km/h 14.5 km/h 85 % 0 mm 54 W/m2
06:21 18.1 °C 15.6 °C 1024.6 hPa West 6.4 km/h 11.3 km/h 85 % 0 mm 62 W/m2
06:26 18.2 °C 15.6 °C 1024.6 hPa WNW 4.8 km/h 11.3 km/h 85 % 0 mm 98 W/m2
06:31 18.3 °C 15.7 °C 1024.6 hPa WNW 4.8 km/h 19.3 km/h 85 % 0 mm 100 W/m2
06:36 18.4 °C 15.7 °C 1024.9 hPa West 9.7 km/h 19.3 km/h 84 % 0 mm 81 W/m2
06:41 18.4 °C 15.7 °C 1024.6 hPa West 9.7 km/h 17.7 km/h 84 % 0 mm 62 W/m2
06:46 18.6 °C 15.8 °C 1024.9 hPa West 9.7 km/h 16.1 km/h 84 % 0 mm 69 W/m2
06:51 18.6 °C 15.8 °C 1024.6 hPa West 9.7 km/h 16.1 km/h 84 % 0 mm 62 W/m2
06:56 18.7 °C 15.8 °C 1024.6 hPa West 9.7 km/h 19.3 km/h 83 % 0 mm 63 W/m2
07:01 18.7 °C 15.8 °C 1024.6 hPa West 9.7 km/h 19.3 km/h 83 % 0 mm 63 W/m2
07:06 18.8 °C 15.8 °C 1024.6 hPa West 8 km/h 14.5 km/h 83 % 0 mm 65 W/m2
07:11 19 °C 16.1 °C 1024.6 hPa WNW 6.4 km/h 16.1 km/h 83 % 0 mm 123 W/m2
07:16 19.2 °C 16.1 °C 1024.6 hPa West 8 km/h 17.7 km/h 82 % 0 mm 264 W/m2
07:21 19.3 °C 16.2 °C 1024.6 hPa West 9.7 km/h 17.7 km/h 82 % 0 mm 278 W/m2
07:26 19.6 °C 16.4 °C 1024.6 hPa West 6.4 km/h 14.5 km/h 82 % 0 mm 279 W/m2
07:32 19.9 °C 16.3 °C 1024.6 hPa West 6.4 km/h 14.5 km/h 80 % 0 mm 306 W/m2
07:36 20.2 °C 16.4 °C 1024.9 hPa West 8 km/h 14.5 km/h 79 % 0 mm 316 W/m2
07:41 20.4 °C 16.6 °C 1024.9 hPa West 8 km/h 16.1 km/h 79 % 0 mm 330 W/m2
07:47 20.6 °C 16.6 °C 1024.9 hPa West 9.7 km/h 19.3 km/h 78 % 0 mm 348 W/m2
07:52 20.7 °C 16.5 °C 1024.9 hPa West 12.9 km/h 19.3 km/h 77 % 0 mm 366 W/m2
07:57 20.9 °C 16.5 °C 1024.9 hPa West 11.3 km/h 19.3 km/h 76 % 0 mm 381 W/m2
08:02 21.1 °C 16.5 °C 1024.9 hPa West 11.3 km/h 17.7 km/h 75 % 0 mm 390 W/m2
08:07 21.2 °C 16.6 °C 1024.9 hPa West 9.7 km/h 17.7 km/h 75 % 0 mm 102 W/m2
08:12 21 °C 16.4 °C 1024.9 hPa West 11.3 km/h 17.7 km/h 75 % 0 mm 128 W/m2
08:17 20.9 °C 16.3 °C 1024.9 hPa West 11.3 km/h 20.9 km/h 75 % 0 mm 192 W/m2
08:22 20.9 °C 16.5 °C 1024.9 hPa West 11.3 km/h 20.9 km/h 76 % 0 mm 206 W/m2
08:27 20.9 °C 16.3 °C 1024.9 hPa West 11.3 km/h 19.3 km/h 75 % 0 mm 200 W/m2
08:32 20.9 °C 16.5 °C 1024.9 hPa West 11.3 km/h 17.7 km/h 76 % 0 mm 223 W/m2
08:37 20.9 °C 16.5 °C 1024.9 hPa West 9.7 km/h 16.1 km/h 76 % 0 mm 169 W/m2
08:42 20.9 °C 16.5 °C 1024.9 hPa West 9.7 km/h 16.1 km/h 76 % 0 mm 193 W/m2
08:47 21.3 °C 16.9 °C 1024.9 hPa WNW 9.7 km/h 16.1 km/h 76 % 0 mm 508 W/m2
08:52 21.7 °C 16.9 °C 1024.9 hPa WNW 11.3 km/h 16.1 km/h 74 % 0 mm 267 W/m2
08:57 21.9 °C 16.8 °C 1024.9 hPa WNW 11.3 km/h 19.3 km/h 73 % 0 mm 531 W/m2
09:02 22.2 °C 17.1 °C 1024.9 hPa WNW 12.9 km/h 20.9 km/h 73 % 0 mm 580 W/m2
09:07 22.5 °C 17.2 °C 1025.3 hPa WNW 12.9 km/h 20.9 km/h 72 % 0 mm 582 W/m2
09:12 22.9 °C 17.1 °C 1025.3 hPa WNW 12.9 km/h 19.3 km/h 70 % 0 mm 603 W/m2
09:17 23.2 °C 17.2 °C 1025.3 hPa WNW 12.9 km/h 19.3 km/h 69 % 0 mm 598 W/m2
09:22 23.6 °C 17.3 °C 1025.3 hPa WNW 12.9 km/h 19.3 km/h 68 % 0 mm 638 W/m2
09:27 23.7 °C 17.2 °C 1025.3 hPa WNW 12.9 km/h 22.5 km/h 67 % 0 mm 682 W/m2
09:32 23.7 °C 17.4 °C 1025.3 hPa West 12.9 km/h 22.5 km/h 68 % 0 mm 666 W/m2
09:37 23.6 °C 17.3 °C 1025.3 hPa West 14.5 km/h 22.5 km/h 68 % 0 mm 654 W/m2
09:42 23.7 °C 17.2 °C 1025.3 hPa West 12.9 km/h 22.5 km/h 67 % 0 mm 671 W/m2
09:47 23.8 °C 17.3 °C 1025.3 hPa West 12.9 km/h 19.3 km/h 67 % 0 mm 694 W/m2
09:52 23.9 °C 17.4 °C 1025.3 hPa West 12.9 km/h 22.5 km/h 67 % 0 mm 684 W/m2
09:57 23.9 °C 17.2 °C 1025.3 hPa West 14.5 km/h 24.1 km/h 66 % 0 mm 677 W/m2
10:02 23.9 °C 17.2 °C 1024.9 hPa West 14.5 km/h 24.1 km/h 66 % 0 mm 684 W/m2
10:07 24.1 °C 17.6 °C 1025.3 hPa WNW 12.9 km/h 20.9 km/h 67 % 0 mm 722 W/m2
10:12 24.5 °C 17.5 °C 1025.3 hPa WNW 11.3 km/h 20.9 km/h 65 % 0 mm 791 W/m2
10:17 24.8 °C 17.5 °C 1025.3 hPa WNW 12.9 km/h 20.9 km/h 64 % 0 mm 772 W/m2
10:22 25 °C 17.7 °C 1024.9 hPa WNW 11.3 km/h 19.3 km/h 64 % 0 mm 742 W/m2
10:27 25.2 °C 17.7 °C 1024.9 hPa NW 11.3 km/h 17.7 km/h 63 % 0 mm 840 W/m2
10:32 25.4 °C 17.8 °C 1024.9 hPa NW 11.3 km/h 20.9 km/h 63 % 0 mm 345 W/m2
10:37 25.4 °C 17.8 °C 1024.9 hPa NW 9.7 km/h 20.9 km/h 63 % 0 mm 345 W/m2
10:42 25.6 °C 17.8 °C 1024.9 hPa WNW 9.7 km/h 17.7 km/h 62 % 0 mm 313 W/m2
10:47 25.4 °C 17.6 °C 1024.9 hPa WNW 9.7 km/h 17.7 km/h 62 % 0 mm 325 W/m2
10:53 25.3 °C 17.5 °C 1024.9 hPa NW 9.7 km/h 14.5 km/h 62 % 0 mm 281 W/m2
10:58 25.3 °C 17.7 °C 1024.9 hPa WNW 9.7 km/h 14.5 km/h 63 % 0 mm 202 W/m2
11:03 25 °C 17.4 °C 1024.9 hPa West 9.7 km/h 16.1 km/h 63 % 0 mm 916 W/m2
11:08 25.2 °C 17.7 °C 1024.9 hPa West 11.3 km/h 19.3 km/h 63 % 0 mm 227 W/m2
11:13 25.2 °C 17.4 °C 1024.9 hPa WNW 12.9 km/h 19.3 km/h 62 % 0 mm 390 W/m2
11:18 24.9 °C 17.4 °C 1024.9 hPa West 12.9 km/h 22.5 km/h 63 % 0 mm 461 W/m2
11:23 24.9 °C 17.6 °C 1024.9 hPa West 9.7 km/h 22.5 km/h 64 % 0 mm 253 W/m2
11:28 25 °C 17.4 °C 1024.9 hPa WNW 11.3 km/h 19.3 km/h 63 % 0 mm 278 W/m2
11:33 24.8 °C 17.5 °C 1024.9 hPa WNW 11.3 km/h 19.3 km/h 64 % 0 mm 294 W/m2
11:38 24.7 °C 17.4 °C 1024.9 hPa WNW 11.3 km/h 20.9 km/h 64 % 0 mm 243 W/m2
11:43 24.6 °C 17.6 °C 1024.9 hPa NW 12.9 km/h 22.5 km/h 65 % 0 mm 285 W/m2
11:48 24.6 °C 17.6 °C 1024.9 hPa NW 12.9 km/h 22.5 km/h 65 % 0 mm 390 W/m2
11:53 24.6 °C 17.6 °C 1024.9 hPa NW 11.3 km/h 24.1 km/h 65 % 0 mm 306 W/m2
11:58 24.8 °C 17.8 °C 1024.9 hPa WNW 12.9 km/h 24.1 km/h 65 % 0 mm 970 W/m2
12:03 25 °C 17.7 °C 1024.9 hPa WNW 14.5 km/h 24.1 km/h 64 % 0 mm 466 W/m2
12:08 25.3 °C 17.7 °C 1024.9 hPa WNW 14.5 km/h 24.1 km/h 63 % 0 mm 860 W/m2
12:13 25.5 °C 17.9 °C 1024.9 hPa WNW 14.5 km/h 22.5 km/h 63 % 0 mm 851 W/m2
12:18 25.8 °C 17.9 °C 1024.9 hPa WNW 14.5 km/h 24.1 km/h 62 % 0 mm 916 W/m2
12:23 26 °C 17.9 °C 1024.9 hPa WNW 12.9 km/h 24.1 km/h 61 % 0 mm 933 W/m2
12:28 26.2 °C 18.1 °C 1024.9 hPa WNW 14.5 km/h 22.5 km/h 61 % 0 mm 939 W/m2
12:33 26.4 °C 18 °C 1024.9 hPa WNW 14.5 km/h 25.7 km/h 60 % 0 mm 937 W/m2
12:38 26.4 °C 18 °C 1024.9 hPa WNW 14.5 km/h 25.7 km/h 60 % 0 mm 947 W/m2
12:43 26.4 °C 18 °C 1024.9 hPa West 14.5 km/h 25.7 km/h 60 % 0 mm 932 W/m2
12:48 26.6 °C 17.9 °C 1025.3 hPa West 14.5 km/h 25.7 km/h 59 % 0 mm 942 W/m2
12:53 26.6 °C 17.9 °C 1024.9 hPa WNW 16.1 km/h 25.7 km/h 59 % 0 mm 949 W/m2
12:58 26.8 °C 18.1 °C 1024.9 hPa WNW 16.1 km/h 25.7 km/h 59 % 0 mm 928 W/m2
13:03 26.8 °C 18.1 °C 1024.9 hPa WNW 16.1 km/h 25.7 km/h 59 % 0 mm 916 W/m2
13:08 26.8 °C 17.8 °C 1024.9 hPa West 16.1 km/h 25.7 km/h 58 % 0 mm 921 W/m2
13:13 26.8 °C 17.8 °C 1024.9 hPa West 16.1 km/h 24.1 km/h 58 % 0 mm 932 W/m2
13:18 26.9 °C 17.9 °C 1024.9 hPa WNW 14.5 km/h 25.7 km/h 58 % 0 mm 923 W/m2
13:23 26.9 °C 17.9 °C 1024.9 hPa West 14.5 km/h 25.7 km/h 58 % 0 mm 891 W/m2
13:28 27 °C 18.1 °C 1024.9 hPa West 14.5 km/h 25.7 km/h 58 % 0 mm 949 W/m2
13:33 27.2 °C 17.9 °C 1024.9 hPa West 12.9 km/h 25.7 km/h 57 % 0 mm 879 W/m2
13:38 27.1 °C 18.1 °C 1024.9 hPa West 14.5 km/h 25.7 km/h 58 % 0 mm 856 W/m2
13:43 27.3 °C 17.4 °C 1024.9 hPa WNW 14.5 km/h 24.1 km/h 55 % 0 mm 863 W/m2
13:48 27.3 °C 17.2 °C 1024.9 hPa WNW 14.5 km/h 30.6 km/h 54 % 0 mm 853 W/m2
13:54 27.3 °C 17.4 °C 1024.9 hPa WNW 16.1 km/h 30.6 km/h 55 % 0 mm 842 W/m2
13:59 27.4 °C 17.6 °C 1024.9 hPa WNW 14.5 km/h 24.1 km/h 55 % 0 mm 856 W/m2
14:04 27.6 °C 18.3 °C 1024.6 hPa WNW 12.9 km/h 24.1 km/h 57 % 0 mm 842 W/m2
14:09 27.6 °C 18.1 °C 1024.6 hPa West 11.3 km/h 19.3 km/h 56 % 0 mm 854 W/m2
14:14 27.6 °C 17.7 °C 1024.6 hPa West 11.3 km/h 19.3 km/h 55 % 0 mm 858 W/m2
14:19 27.6 °C 18.1 °C 1024.6 hPa West 12.9 km/h 20.9 km/h 56 % 0 mm 863 W/m2
14:24 27.6 °C 18.1 °C 1024.6 hPa West 12.9 km/h 22.5 km/h 56 % 0 mm 868 W/m2
14:29 27.5 °C 17.9 °C 1024.6 hPa West 12.9 km/h 25.7 km/h 56 % 0 mm 870 W/m2
14:34 27.4 °C 17.8 °C 1024.6 hPa West 12.9 km/h 25.7 km/h 56 % 0 mm 863 W/m2
14:39 27.4 °C 17.8 °C 1024.6 hPa WSW 11.3 km/h 19.3 km/h 56 % 0 mm 775 W/m2
14:44 27.6 °C 18.1 °C 1024.6 hPa West 11.3 km/h 19.3 km/h 56 % 0 mm 809 W/m2
14:49 27.6 °C 17.7 °C 1024.6 hPa West 12.9 km/h 22.5 km/h 55 % 0 mm 796 W/m2
14:54 27.6 °C 17.4 °C 1024.6 hPa West 11.3 km/h 22.5 km/h 54 % 0 mm 756 W/m2
14:59 27.7 °C 17.6 °C 1024.3 hPa West 9.7 km/h 22.5 km/h 54 % 0 mm 765 W/m2
15:04 27.8 °C 17.3 °C 1024.3 hPa West 12.9 km/h 22.5 km/h 53 % 0 mm 809 W/m2
15:09 28 °C 17.2 °C 1024.3 hPa West 14.5 km/h 20.9 km/h 52 % 0 mm 784 W/m2
15:14 27.9 °C 17.4 °C 1024.3 hPa West 12.9 km/h 29 km/h 53 % 0 mm 802 W/m2
15:19 28.2 °C 17.7 °C 1024.3 hPa WNW 12.9 km/h 29 km/h 53 % 0 mm 782 W/m2
15:24 28.4 °C 17.6 °C 1024.3 hPa WNW 12.9 km/h 22.5 km/h 52 % 0 mm 780 W/m2
15:29 28.5 °C 17.4 °C 1024.3 hPa West 12.9 km/h 22.5 km/h 51 % 0 mm 770 W/m2
15:34 28.4 °C 17.3 °C 1024.3 hPa WNW 12.9 km/h 20.9 km/h 51 % 0 mm 763 W/m2
15:39 28.4 °C 17.3 °C 1024.3 hPa WNW 14.5 km/h 24.1 km/h 51 % 0 mm 751 W/m2
15:44 28.6 °C 17.2 °C 1024.3 hPa WNW 12.9 km/h 24.1 km/h 50 % 0 mm 742 W/m2
15:47 28.6 °C 16.8 °C 1024.3 hPa WNW 11.3 km/h 19.3 km/h 49 % 0 mm 738 W/m2
15:52 28.6 °C 16.8 °C 1024.3 hPa WNW 12.9 km/h 24.1 km/h 49 % 0 mm 693 W/m2
15:57 28.8 °C 16.7 °C 1024.3 hPa WNW 12.9 km/h 24.1 km/h 48 % 0 mm 670 W/m2
16:02 28.9 °C 16.4 °C 1024.3 hPa WNW 11.3 km/h 24.1 km/h 47 % 0 mm 689 W/m2
16:07 28.7 °C 16.6 °C 1023.9 hPa West 9.7 km/h 24.1 km/h 48 % 0 mm 673 W/m2
16:08 28.7 °C 16.6 °C 1023.9 hPa West 11.3 km/h 24.1 km/h 48 % 0 mm 679 W/m2
16:13 28.6 °C 16.5 °C 1023.9 hPa West 9.7 km/h 19.3 km/h 48 % 0 mm 649 W/m2
16:18 28.9 °C 16.8 °C 1023.9 hPa WNW 11.3 km/h 19.3 km/h 48 % 0 mm 633 W/m2
16:23 28.7 °C 15.9 °C 1023.9 hPa West 12.9 km/h 24.1 km/h 46 % 0 mm 636 W/m2
16:28 28.6 °C 15.8 °C 1023.9 hPa West 12.9 km/h 24.1 km/h 46 % 0 mm 629 W/m2
16:33 28.7 °C 16.6 °C 1023.9 hPa WNW 11.3 km/h 19.3 km/h 48 % 0 mm 622 W/m2
16:38 28.8 °C 16.4 °C 1023.9 hPa WNW 9.7 km/h 20.9 km/h 47 % 0 mm 613 W/m2
16:43 29 °C 16.9 °C 1023.9 hPa WNW 11.3 km/h 24.1 km/h 48 % 0 mm 596 W/m2
16:48 29.1 °C 16.6 °C 1023.9 hPa WNW 12.9 km/h 24.1 km/h 47 % 0 mm 592 W/m2
16:53 28.9 °C 17.1 °C 1023.9 hPa West 12.9 km/h 24.1 km/h 49 % 0 mm 577 W/m2
16:58 28.8 °C 17 °C 1023.9 hPa West 11.3 km/h 20.9 km/h 49 % 0 mm 577 W/m2
17:03 28.7 °C 16.6 °C 1023.6 hPa West 12.9 km/h 20.9 km/h 48 % 0 mm 566 W/m2
17:08 28.7 °C 16.9 °C 1023.6 hPa West 11.3 km/h 19.3 km/h 49 % 0 mm 547 W/m2
17:13 28.7 °C 17.2 °C 1023.6 hPa West 12.9 km/h 19.3 km/h 50 % 0 mm 526 W/m2
17:18 28.6 °C 17.2 °C 1023.6 hPa West 12.9 km/h 19.3 km/h 50 % 0 mm 524 W/m2
17:23 28.5 °C 17.1 °C 1023.6 hPa West 12.9 km/h 20.9 km/h 50 % 0 mm 508 W/m2
17:28 28.4 °C 17.3 °C 1023.6 hPa West 12.9 km/h 20.9 km/h 51 % 0 mm 490 W/m2
17:33 28.5 °C 17.4 °C 1023.6 hPa West 11.3 km/h 22.5 km/h 51 % 0 mm 471 W/m2
17:35 28.6 °C 17.4 °C 1023.6 hPa West 11.3 km/h 22.5 km/h 51 % 0 mm 469 W/m2
17:40 28.6 °C 17.2 °C 1023.6 hPa West 11.3 km/h 22.5 km/h 50 % 0 mm 461 W/m2
17:45 28.2 °C 17.1 °C 1023.6 hPa West 11.3 km/h 22.5 km/h 51 % 0 mm 448 W/m2
17:50 28 °C 17.2 °C 1023.6 hPa WSW 11.3 km/h 22.5 km/h 52 % 0 mm 429 W/m2
17:55 28.1 °C 17.3 °C 1023.6 hPa WSW 11.3 km/h 19.3 km/h 52 % 0 mm 415 W/m2
18:00 28.2 °C 17.7 °C 1023.6 hPa West 12.9 km/h 20.9 km/h 53 % 0 mm 410 W/m2
18:05 28.3 °C 17.5 °C 1023.6 hPa West 12.9 km/h 20.9 km/h 52 % 0 mm 396 W/m2
18:10 28.3 °C 17.5 °C 1023.6 hPa West 11.3 km/h 20.9 km/h 52 % 0 mm 378 W/m2
18:15 28.4 °C 17.3 °C 1023.6 hPa West 11.3 km/h 19.3 km/h 51 % 0 mm 369 W/m2
18:16 28.4 °C 17.3 °C 1023.6 hPa WNW 11.3 km/h 19.3 km/h 51 % 0 mm 364 W/m2
18:21 28.5 °C 17.7 °C 1023.6 hPa West 11.3 km/h 19.3 km/h 52 % 0 mm 355 W/m2
18:26 28.6 °C 17.8 °C 1023.6 hPa West 9.7 km/h 17.7 km/h 52 % 0 mm 336 W/m2
18:31 28.4 °C 17.9 °C 1023.6 hPa West 9.7 km/h 17.7 km/h 53 % 0 mm 332 W/m2
18:36 28.4 °C 17.6 °C 1023.6 hPa West 11.3 km/h 20.9 km/h 52 % 0 mm 320 W/m2
18:41 28.3 °C 17.2 °C 1023.6 hPa West 11.3 km/h 20.9 km/h 51 % 0 mm 295 W/m2
18:46 28.2 °C 17.4 °C 1023.6 hPa West 12.9 km/h 19.3 km/h 52 % 0 mm 285 W/m2
18:51 28 °C 17.5 °C 1023.6 hPa West 12.9 km/h 20.9 km/h 53 % 0 mm 278 W/m2
18:56 27.8 °C 17.3 °C 1023.6 hPa West 12.9 km/h 20.9 km/h 53 % 0 mm 264 W/m2
19:01 27.6 °C 17.4 °C 1023.6 hPa West 11.3 km/h 19.3 km/h 54 % 0 mm 253 W/m2
19:06 27.6 °C 17.4 °C 1023.6 hPa WNW 9.7 km/h 16.1 km/h 54 % 0 mm 234 W/m2
19:11 27.5 °C 17.4 °C 1023.6 hPa West 9.7 km/h 17.7 km/h 54 % 0 mm 221 W/m2
19:16 27.3 °C 17.4 °C 1023.6 hPa WSW 11.3 km/h 17.7 km/h 55 % 0 mm 207 W/m2
19:21 27.3 °C 17.4 °C 1023.6 hPa West 9.7 km/h 16.1 km/h 55 % 0 mm 199 W/m2
19:26 27.3 °C 17.4 °C 1023.6 hPa WNW 9.7 km/h 16.1 km/h 55 % 0 mm 188 W/m2
19:31 27.3 °C 17.4 °C 1023.6 hPa WNW 11.3 km/h 17.7 km/h 55 % 0 mm 174 W/m2
19:36 27.2 °C 17.4 °C 1023.6 hPa WNW 11.3 km/h 17.7 km/h 55 % 0 mm 167 W/m2
19:42 27.1 °C 17.3 °C 1023.6 hPa WNW 9.7 km/h 16.1 km/h 55 % 0 mm 155 W/m2
19:47 27 °C 17.2 °C 1023.6 hPa WNW 9.7 km/h 16.1 km/h 55 % 0 mm 142 W/m2
19:52 26.9 °C 17.1 °C 1023.6 hPa WNW 9.7 km/h 16.1 km/h 55 % 0 mm 134 W/m2
19:57 26.8 °C 17.3 °C 1023.6 hPa WNW 11.3 km/h 17.7 km/h 56 % 0 mm 125 W/m2
20:02 26.6 °C 17.1 °C 1023.6 hPa West 9.7 km/h 17.7 km/h 56 % 0 mm 100 W/m2
20:07 26.4 °C 17.2 °C 1023.6 hPa West 8 km/h 16.1 km/h 57 % 0 mm 47 W/m2
20:12 26.1 °C 16.9 °C 1023.6 hPa West 8 km/h 14.5 km/h 57 % 0 mm 40 W/m2
20:17 25.9 °C 17 °C 1023.6 hPa West 6.4 km/h 12.9 km/h 58 % 0 mm 54 W/m2
20:22 25.7 °C 17.1 °C 1023.6 hPa West 6.4 km/h 12.9 km/h 59 % 0 mm 35 W/m2
20:27 25.6 °C 17.3 °C 1023.6 hPa WNW 6.4 km/h 11.3 km/h 60 % 0 mm 32 W/m2
20:32 25.4 °C 17.1 °C 1023.6 hPa WNW 6.4 km/h 11.3 km/h 60 % 0 mm 30 W/m2
20:38 25.3 °C 17 °C 1023.6 hPa WNW 6.4 km/h 11.3 km/h 60 % 0 mm 32 W/m2
20:43 25.1 °C 17.1 °C 1023.6 hPa WNW 4.8 km/h 11.3 km/h 61 % 0 mm 28 W/m2
20:48 24.9 °C 16.6 °C 1023.6 hPa WNW 4.8 km/h 9.7 km/h 60 % 0 mm 23 W/m2
20:53 24.7 °C 16.4 °C 1023.6 hPa NW 6.4 km/h 12.9 km/h 60 % 0 mm 21 W/m2
20:58 24.4 °C 16.1 °C 1023.6 hPa NW 8 km/h 12.9 km/h 60 % 0 mm 19 W/m2
21:03 24.2 °C 16.2 °C 1023.6 hPa NW 8 km/h 14.5 km/h 61 % 0 mm 18 W/m2
21:08 23.9 °C 15.9 °C 1023.6 hPa NW 8 km/h 14.5 km/h 61 % 0 mm 16 W/m2
21:13 23.7 °C 16 °C 1023.6 hPa NW 8 km/h 14.5 km/h 62 % 0 mm 14 W/m2
21:18 23.5 °C 15.8 °C 1023.9 hPa NW 6.4 km/h 12.9 km/h 62 % 0 mm 12 W/m2
21:23 23.3 °C 15.6 °C 1023.9 hPa NW 8 km/h 14.5 km/h 62 % 0 mm 11 W/m2
21:28 23.1 °C 15.4 °C 1023.9 hPa NW 9.7 km/h 17.7 km/h 62 % 0 mm 9 W/m2
21:33 22.9 °C 15.2 °C 1023.9 hPa NW 8 km/h 17.7 km/h 62 % 0 mm 7 W/m2
21:38 22.8 °C 15.1 °C 1023.9 hPa NW 6.4 km/h 12.9 km/h 62 % 0 mm 5 W/m2
21:43 22.6 °C 15.2 °C 1023.9 hPa NW 3.2 km/h 9.7 km/h 63 % 0 mm 0 W/m2
21:48 22.5 °C 15.3 °C 1023.9 hPa NW 1.6 km/h 6.4 km/h 64 % 0 mm 0 W/m2
21:53 22.3 °C 15.4 °C 1024.3 hPa NW 1.6 km/h 6.4 km/h 65 % 0 mm 0 W/m2
21:54 22.3 °C 15.4 °C 1024.3 hPa NW 1.6 km/h 6.4 km/h 65 % 0 mm 0 W/m2
21:59 22.1 °C 15.2 °C 1024.3 hPa NW 3.2 km/h 9.7 km/h 65 % 0 mm 0 W/m2
22:04 21.8 °C 14.7 °C 1024.3 hPa NW 4.8 km/h 9.7 km/h 64 % 0 mm 0 W/m2
22:09 21.6 °C 14.7 °C 1024.3 hPa NW 3.2 km/h 9.7 km/h 65 % 0 mm 0 W/m2
22:14 21.4 °C 14.3 °C 1024.3 hPa NW 3.2 km/h 12.9 km/h 64 % 0 mm 0 W/m2
22:19 21.2 °C 14.1 °C 1024.3 hPa NW 6.4 km/h 12.9 km/h 64 % 0 mm 0 W/m2
22:24 21.1 °C 14 °C 1024.3 hPa NW 8 km/h 14.5 km/h 64 % 0 mm 0 W/m2
22:29 21 °C 13.9 °C 1024.3 hPa NW 6.4 km/h 14.5 km/h 64 % 0 mm 0 W/m2
22:34 20.9 °C 14.1 °C 1024.3 hPa NW 3.2 km/h 9.7 km/h 65 % 0 mm 0 W/m2
22:39 20.7 °C 13.9 °C 1024.6 hPa NW 1.6 km/h 8 km/h 65 % 0 mm 0 W/m2
22:44 20.5 °C 14.4 °C 1024.6 hPa Calm   6.4 km/h 68 % 0 mm 0 W/m2
22:49 20.3 °C 14.4 °C 1024.6 hPa Calm   6.4 km/h 69 % 0 mm 0 W/m2
22:54 20.2 °C 14.3 °C 1024.6 hPa Calm   3.2 km/h 69 % 0 mm 0 W/m2
22:59 20 °C 14.1 °C 1024.6 hPa NW 1.6 km/h 3.2 km/h 69 % 0 mm 0 W/m2
23:04 19.8 °C 14.2 °C 1024.6 hPa NW 1.6 km/h 3.2 km/h 70 % 0 mm 0 W/m2
23:09 19.6 °C 14 °C 1024.6 hPa NW 1.6 km/h 3.2 km/h 70 % 0 mm 0 W/m2
23:14 19.4 °C 13.6 °C 1024.6 hPa NW 1.6 km/h 4.8 km/h 69 % 0 mm 0 W/m2
23:19 19.3 °C 13.4 °C 1024.6 hPa NW 1.6 km/h 6.4 km/h 69 % 0 mm 0 W/m2
23:24 19.3 °C 13.2 °C 1024.6 hPa NW 1.6 km/h 6.4 km/h 68 % 0 mm 0 W/m2
23:29 19.2 °C 13.4 °C 1024.6 hPa Calm   3.2 km/h 69 % 0 mm 0 W/m2
23:34 19.2 °C 13.6 °C 1024.6 hPa Calm   3.2 km/h 70 % 0 mm 0 W/m2
23:39 19.1 °C 13.5 °C 1024.6 hPa NW 1.6 km/h 3.2 km/h 70 % 0 mm 0 W/m2
23:44 18.9 °C 13.5 °C 1024.6 hPa NW 1.6 km/h 6.4 km/h 71 % 0 mm 0 W/m2
23:49 18.7 °C 13.3 °C 1024.3 hPa NW 3.2 km/h 8 km/h 71 % 0 mm 0 W/m2
23:54 18.6 °C 13.4 °C 1024.3 hPa NW 6.4 km/h 9.7 km/h 72 % 0 mm 0 W/m2
23:59 18.4 °C 13.4 °C 1024.3 hPa WNW 6.4 km/h 9.7 km/h 73 % 0 mm 0 W/m2
Delerius-Weather
Compliments of Weather Underground - 2.25 mb

Data updates at regular intervals.